Home > Time Zones > World Clock > Weather > China > Hefei > Past weeks

Flag for China Weather past 2 weeks in Hefei, Anhui, China

Now
86 °F

Clear.


Feels Like: 97 °F
Forecast: 81 / 96 °F
Wind: 8 mph from South

Location: Hefei Airport

Current Time: Aug 1, 2015 at 10:16:18 PM

Latest Report: Aug 1, 2015 at 9:00 PM


Visibility: 10 mi

Pressure: 29.74 "Hg

Humidity: 75%

Dew point: 77 °F

Location of HefeiLocation

Historic Weather in Hefei — Graph

°F

Hefei temperature yesterday

Maximum temperature yesterday: 95 °F (at 2:00 PM)
Minimum temperature yesterday: 79 °F (at 4:00 AM)
Average temperature yesterday: 87 °F

Past Weeks' High & Low Weather Summary

 TemperatureHumidityPressure
High95 °F (Jul 29, 2:00 PM)100% (Jul 17, 9:00 PM)29.80 "Hg (Jul 17, 9:00 PM)
Low72 °F (Jul 17, 9:00 PM)49% (Jul 30, 12:00 PM)29.53 "Hg (Jul 24, 5:00 AM)
Average82 °F84%29.69 "Hg
* Reported Jul 17 9:00 PM — Aug 1 9:00 PM, Hefei, Weather by CustomWeather, © 2015

Note: Actual official high and low records may vary slightly from our data, if they occured in-between our weather recording intervals... More about our weather records

Advertising

Hefei weather history for previous 24 hours

 ConditionsComfort  
Time TempWeatherWind HumidityBarometerVisibility
9:00 PM
Sat, Aug 1
86 °FClear.8 mph75%29.74 "Hg10 mi
8:00 PM88 °FClear.8 mph70%29.74 "Hg10 mi
7:00 PM90 °FSunny.6 mph71%29.71 "Hg10 mi
6:00 PM91 °FSunny.8 mph63%29.71 "Hg10 mi
5:00 PM91 °FSunny.8 mph56%29.71 "Hg10 mi
4:00 PM95 °FSunny.10 mph50%29.71 "Hg10 mi
3:00 PM93 °FPassing clouds.8 mph59%29.74 "HgN/A
2:00 PM93 °FPassing clouds.10 mph56%29.77 "HgN/A
1:00 PM93 °FSunny.10 mph53%29.77 "Hg10 mi
12:00 PM93 °FPassing clouds.8 mph63%29.80 "HgN/A
11:00 AM90 °FSunny.10 mph63%29.80 "Hg10 mi
10:00 AM90 °FPassing clouds.8 mph67%29.77 "HgN/A
9:00 AM88 °FSunny.8 mph75%29.77 "Hg10 mi
8:00 AM86 °FPassing clouds.8 mph75%29.77 "HgN/A
7:00 AM82 °FClear.6 mph89%29.77 "Hg5 mi
6:00 AM81 °FClear.3 mph94%29.77 "Hg5 mi
5:00 AM82 °FClear.1 mph89%29.74 "Hg5 mi
4:00 AM82 °FClear.6 mph89%29.74 "Hg10 mi
3:00 AM82 °FClear.6 mph89%29.71 "Hg10 mi
2:00 AM84 °FLight rain. Clear.6 mph84%29.71 "HgN/A
1:00 AM84 °FLight rain. Clear.8 mph79%29.74 "HgN/A
12:00 AM86 °FClear.8 mph75%29.74 "Hg10 mi
11:00 PM
Fri, Jul 31
86 °FClear.8 mph75%29.74 "Hg10 mi
10:00 PM86 °FClear.8 mph75%29.74 "Hg10 mi
Weather by CustomWeather, © 2015

See weather overviewHow to use our weather pages